EN

Hourly Weather Resita

Today, 27 October, Tuesday

Time Temperature Precipitation Wind Pressure Humidity
00:00 +12°C° 0 mm 2 mps 735 mmHg 82%
01:00 +12°C° 0 mm 2 mps 736 mmHg 80%
02:00 +12°C° 0 mm 2 mps 735 mmHg 80%
03:00 +12°C° 0 mm 2 mps 735 mmHg 81%
04:00 +12°C° 0 mm 2 mps 735 mmHg 82%
05:00 +12°C° 0 mm 2 mps 735 mmHg 82%
06:00 +12°C° 0 mm 2 mps 736 mmHg 81%
07:00 +12°C° 0 mm 2 mps 736 mmHg 82%
08:00 +14°C° 0 mm 2 mps 736 mmHg 75%
09:00 +17°C° 0 mm 2 mps 736 mmHg 67%
10:00 +19°C° 0 mm 2 mps 736 mmHg 59%
11:00 +19°C° 0 mm 2 mps 736 mmHg 56%
12:00 +20°C° 0 mm 2 mps 736 mmHg 53%
13:00 +21°C° 0 mm 2 mps 736 mmHg 50%
14:00 +19°C° 0 mm 2 mps 736 mmHg 56%
15:00 +18°C° 0 mm 2 mps 736 mmHg 62%
16:00 +17°C° 0 mm 2 mps 735 mmHg 68%
17:00 +16°C° 0 mm 2 mps 736 mmHg 72%
18:00 +14°C° 0 mm 2 mps 736 mmHg 76%
19:00 +13°C° 0 mm 2 mps 736 mmHg 80%
20:00 +13°C° 0 mm 2 mps 736 mmHg 81%
21:00 +13°C° 0 mm 2 mps 737 mmHg 81%
22:00 +13°C° 0 mm 2 mps 737 mmHg 81%
23:00 +13°C° 0 mm 2 mps 737 mmHg 81%

Tomorrow, 28 October, Wednesday

Time Temperature Precipitation Wind Pressure Humidity
00:00 +12°C° 0 mm 2 mps 737 mmHg 81%
01:00 +12°C° 0 mm 2 mps 737 mmHg 81%
02:00 +12°C° 0 mm 1 mps 737 mmHg 81%
03:00 +12°C° 0 mm 1 mps 737 mmHg 81%
04:00 +12°C° 0 mm 1 mps 737 mmHg 81%
05:00 +12°C° 0 mm 1 mps 737 mmHg 80%
06:00 +12°C° 0 mm 1 mps 738 mmHg 79%
07:00 +12°C° 0 mm 1 mps 738 mmHg 78%
08:00 +14°C° 0 mm 1 mps 738 mmHg 71%
09:00 +16°C° 0 mm 1 mps 738 mmHg 65%
10:00 +17°C° 0 mm 0 mps 739 mmHg 59%
11:00 +19°C° 0 mm 1 mps 738 mmHg 57%
12:00 +20°C° 0 mm 1 mps 738 mmHg 56%
13:00 +20°C° 0 mm 1 mps 738 mmHg 55%
14:00 +19°C° 0 mm 1 mps 738 mmHg 60%
15:00 +18°C° 0 mm 1 mps 738 mmHg 65%
16:00 +16°C° 0 mm 1 mps 738 mmHg 71%
17:00 +15°C° 0 mm 1 mps 738 mmHg 74%
18:00 +14°C° 0 mm 1 mps 738 mmHg 77%
19:00 +12°C° 0 mm 0 mps 738 mmHg 80%
20:00 +12°C° 0 mm 0 mps 739 mmHg 81%
21:00 +11°C° 0 mm 0 mps 739 mmHg 83%
22:00 +11°C° 0 mm 0 mps 739 mmHg 84%
23:00 +11°C° 0 mm 0 mps 739 mmHg 85%

Day after tomorrow, 29 October, Thursday

Time Temperature Precipitation Wind Pressure Humidity
00:00 +11°C° 0 mm 0 mps 739 mmHg 86%
01:00 +10°C° 0 mm 0 mps 739 mmHg 86%
02:00 +10°C° 0 mm 0 mps 739 mmHg 87%
03:00 +10°C° 0 mm 0 mps 739 mmHg 88%
04:00 +10°C° 0 mm 0 mps 739 mmHg 89%
05:00 +10°C° 0 mm 0 mps 739 mmHg 89%
06:00 +10°C° 0 mm 0 mps 739 mmHg 89%
07:00 +10°C° 0 mm 0 mps 739 mmHg 89%
08:00 +13°C° 0 mm 1 mps 740 mmHg 83%
09:00 +14°C° 0 mm 1 mps 740 mmHg 77%
10:00 +16°C° 0 mm 1 mps 740 mmHg 71%
11:00 +16°C° 0 mm 2 mps 740 mmHg 69%
12:00 +17°C° 0 mm 2 mps 740 mmHg 68%
13:00 +17°C° 0 mm 2 mps 739 mmHg 66%
14:00 +17°C° 0 mm 2 mps 739 mmHg 70%
15:00 +16°C° 0 mm 2 mps 739 mmHg 73%
16:00 +15°C° 0 mm 2 mps 739 mmHg 77%
17:00 +15°C° 0.1 mm 2 mps 740 mmHg 78%
18:00 +14°C° 0.1 mm 1 mps 740 mmHg 80%
19:00 +14°C° 0.1 mm 1 mps 740 mmHg 82%
20:00 +13°C° 0 mm 2 mps 741 mmHg 82%
21:00 +12°C° 0 mm 3 mps 741 mmHg 82%
22:00 +12°C° 0 mm 3 mps 742 mmHg 82%
23:00 +11°C° 0.4 mm 3 mps 742 mmHg 85%

30 October, Friday

Time Temperature Precipitation Wind Pressure Humidity
00:00 +10°C° 0.4 mm 2 mps 742 mmHg 88%
01:00 +11°C° 0.4 mm 1 mps 742 mmHg 91%
02:00 +10°C° 0.1 mm 2 mps 742 mmHg 90%
03:00 +9°C° 0.1 mm 2 mps 742 mmHg 89%
04:00 +9°C° 0.1 mm 3 mps 743 mmHg 88%
05:00 +9°C° 0.1 mm 3 mps 743 mmHg 88%
06:00 +9°C° 0.1 mm 3 mps 743 mmHg 88%
07:00 +8°C° 0.1 mm 2 mps 743 mmHg 88%
08:00 +9°C° 0 mm 3 mps 743 mmHg 80%
09:00 +10°C° 0 mm 3 mps 743 mmHg 72%
10:00 +11°C° 0 mm 3 mps 744 mmHg 63%
11:00 +11°C° 0 mm 3 mps 743 mmHg 60%
12:00 +11°C° 0 mm 3 mps 743 mmHg 57%
13:00 +12°C° 0 mm 3 mps 743 mmHg 54%
14:00 +11°C° 0 mm 3 mps 743 mmHg 57%
15:00 +10°C° 0 mm 2 mps 743 mmHg 60%
16:00 +11°C° 0 mm 1 mps 743 mmHg 63%
17:00 +10°C° 0 mm 1 mps 743 mmHg 64%
18:00 +10°C° 0 mm 1 mps 743 mmHg 65%
19:00 +9°C° 0 mm 1 mps 743 mmHg 66%
20:00 +10°C° 0 mm 1 mps 743 mmHg 66%
21:00 +10°C° 0 mm 1 mps 743 mmHg 67%
22:00 +10°C° 0 mm 1 mps 743 mmHg 68%
23:00 +10°C° 0.5 mm 1 mps 742 mmHg 74%

31 October, Saturday

Time Temperature Precipitation Wind Pressure Humidity
00:00 +9°C° 0.5 mm 2 mps 742 mmHg 81%
01:00 +9°C° 0.5 mm 2 mps 741 mmHg 88%
02:00 +9°C° 0.7 mm 2 mps 741 mmHg 90%
03:00 +9°C° 0.7 mm 2 mps 741 mmHg 92%
04:00 +9°C° 0.7 mm 3 mps 740 mmHg 95%
05:00 +10°C° 1.1 mm 3 mps 740 mmHg 94%
06:00 +10°C° 1.1 mm 3 mps 740 mmHg 94%
07:00 +10°C° 1.1 mm 3 mps 739 mmHg 94%
08:00 +10°C° 1.1 mm 4 mps 739 mmHg 94%
09:00 +11°C° 1.1 mm 4 mps 740 mmHg 94%
10:00 +11°C° 1.1 mm 4 mps 740 mmHg 94%
11:00 +11°C° 0.4 mm 4 mps 739 mmHg 91%
12:00 +11°C° 0.4 mm 4 mps 739 mmHg 89%
13:00 +12°C° 0.4 mm 4 mps 739 mmHg 87%
14:00 +11°C° 0.1 mm 4 mps 740 mmHg 84%
15:00 +11°C° 0.1 mm 4 mps 740 mmHg 81%
16:00 +10°C° 0.1 mm 4 mps 740 mmHg 79%
17:00 +9°C° 0 mm 3 mps 741 mmHg 81%
18:00 +8°C° 0 mm 3 mps 741 mmHg 84%
19:00 +7°C° 0 mm 2 mps 742 mmHg 86%
20:00 +7°C° 0 mm 2 mps 742 mmHg 87%
21:00 +6°C° 0 mm 2 mps 743 mmHg 87%
22:00 +7°C° 0 mm 1 mps 743 mmHg 87%
23:00 +6°C° 0 mm 1 mps 743 mmHg 87%

1 November, Sunday

Time Temperature Precipitation Wind Pressure Humidity
00:00 +6°C° 0 mm 1 mps 744 mmHg 87%
01:00 +6°C° 0 mm 1 mps 744 mmHg 86%
02:00 +5°C° 0 mm 1 mps 744 mmHg 87%
03:00 +4°C° 0 mm 0 mps 744 mmHg 87%
04:00 +4°C° 0 mm 0 mps 744 mmHg 88%
05:00 +4°C° 0 mm 0 mps 744 mmHg 87%
06:00 +4°C° 0 mm 0 mps 745 mmHg 87%
07:00 +4°C° 0 mm 0 mps 745 mmHg 87%
08:00 +7°C° 0 mm 1 mps 745 mmHg 80%
09:00 +9°C° 0 mm 1 mps 745 mmHg 73%
10:00 +10°C° 0 mm 1 mps 745 mmHg 66%
11:00 +11°C° 0 mm 1 mps 745 mmHg 64%
12:00 +12°C° 0 mm 1 mps 745 mmHg 61%
13:00 +12°C° 0 mm 1 mps 745 mmHg 58%
14:00 +11°C° 0 mm 1 mps 745 mmHg 63%
15:00 +10°C° 0 mm 1 mps 744 mmHg 67%
16:00 +10°C° 0 mm 1 mps 744 mmHg 72%
17:00 +9°C° 0 mm 1 mps 745 mmHg 74%
18:00 +7°C° 0 mm 0 mps 745 mmHg 77%
19:00 +6°C° 0 mm 0 mps 745 mmHg 80%
20:00 +6°C° 0 mm 0 mps 745 mmHg 81%
21:00 +6°C° 0 mm 0 mps 745 mmHg 82%
22:00 +5°C° 0 mm 0 mps 745 mmHg 83%
23:00 +5°C° 0 mm 0 mps 745 mmHg 84%
Show more